Tracking 28790 objects as of 18-Apr-2024
HD Live streaming from Space Station
objects crossing your sky now

SL-24 R/B

Track SL-24 R/B now!
10-day predictions


NORAD ID: 33319
Int'l Code: 2008-040H
Perigee: 622.9 km
Apogee: 1,352.1 km
Inclination: 98.0 °
Period: 104.7 minutes
Semi major axis: 7358 km
RCS: 6.1238 m2 (large)
Launch date: August 29, 2008
Source: Commonwealth of Independent States (former USSR) (CIS)
Launch site: TYURATAM MISSILE AND SPACE COMPLEX (TTMTR)

Note: This is a ROCKET BODY
Your satellite tracking list
Your tracking list is empty




NASA's NSSDC Master Catalog

Two Line Element Set (TLE):
1 33319U 08040H   24109.53404921  .00000745  00000-0  32990-3 0  9997
2 33319  97.9588  70.8444 0495477  16.5059  89.4786 13.75378841784745
Source of the keplerian elements: AFSPC